| time (UTC) | temp C | wind direction | speed KPH | gust KPH | rain 1hr cm | rain 24hr cm | rain mn cm | humidity % | barometer mb |
| 20260508145005 | 13 | 219 | 0.0 | 4.8 | 0.00 | 0.00 | 0.00 | 71 | 1027.3 |
| 20260508144004 | 12 | 144 | 0.0 | 6.4 | 0.00 | 0.00 | 0.00 | 75 | 1027.3 |
| 20260508142004 | 11 | 230 | 0.0 | 0.0 | 0.00 | 0.00 | 0.00 | 93 | 1027.3 |
| 20260508141004 | 10 | 13 | 0.0 | 1.6 | 0.00 | 0.00 | 0.00 | 94 | 1027.3 |
| 20260508140004 | 9 | 294 | 0.0 | 410.4 | 0.00 | 0.00 | 0.00 | 94 | 1027.3 |
| 20260508135003 | 2 | 5 | 410.4 | 410.4 | 0.00 | 0.00 | 0.00 | 94 | 1027.3 |
| 20260508134004 | 2 | 5 | 410.4 | 410.4 | 0.00 | 0.00 | 0.00 | 94 | 1027.3 |
| 20260508133013 | 2 | 5 | 410.4 | 410.4 | 0.00 | 0.00 | 0.00 | 94 | 1027.3 |
| 20260508132003 | 2 | 5 | 410.4 | 410.4 | 0.00 | 0.00 | 0.00 | 94 | 1027.3 |
| 20260508131003 | 2 | 5 | 410.4 | 410.4 | 0.00 | 0.00 | 0.00 | 94 | 1027.3 |
| 20260508130208 | 2 | 5 | 410.4 | 410.4 | 0.00 | 0.00 | 0.00 | 94 | 1027.3 |
| 20260508125003 | 2 | 5 | 410.4 | 410.4 | 0.00 | 0.00 | 0.00 | 94 | 1027.3 |
| 20260508124003 | 2 | 5 | 410.4 | 410.4 | 0.00 | 0.00 | 0.00 | 94 | 1027.3 |
| 20260508123003 | 2 | 5 | 410.4 | 410.4 | 0.00 | 0.00 | 0.00 | 94 | 1027.3 |
| 20260508122004 | 2 | 5 | 410.4 | 410.4 | 0.00 | 0.00 | 0.00 | 94 | 1027.3 |
| 20260508121004 | 2 | 5 | 410.4 | 410.4 | 0.00 | 0.00 | 0.00 | 94 | 1027.3 |
| 20260508115219 | 2 | 5 | 410.4 | 410.4 | 0.00 | 0.00 | 0.00 | 94 | 1027.3 |
| 20260508114003 | 2 | 5 | 410.4 | 410.4 | 0.00 | 0.00 | 0.00 | 94 | 1027.3 |
| 20260508113005 | 2 | 5 | 410.4 | 410.4 | 0.00 | 0.00 | 0.00 | 94 | 1027.3 |
| 20260508110218 | 2 | 5 | 410.4 | 410.4 | 0.00 | 0.00 | 0.00 | 94 | 1027.3 |
| 20260508105004 | 2 | 5 | 410.4 | 410.4 | 0.00 | 0.00 | 0.00 | 94 | 1027.3 |
| 20260508104004 | 2 | 5 | 410.4 | 410.4 | 0.00 | 0.00 | 0.00 | 94 | 1027.3 |
| 20260508103004 | 2 | 5 | 410.4 | 410.4 | 0.00 | 0.00 | 0.00 | 94 | 1027.3 |
| 20260508102004 | 2 | 5 | 410.4 | 410.4 | 0.00 | 0.00 | 0.00 | 94 | 1027.3 |
| 20260508101004 | 2 | 5 | 410.4 | 410.4 | 0.00 | 0.00 | 0.00 | 94 | 1027.3 |
| 20260508095005 | 2 | 5 | 410.4 | 410.4 | 0.00 | 0.00 | 0.00 | 94 | 1027.3 |
| 20260508093003 | 2 | 5 | 410.4 | 410.4 | 0.00 | 0.00 | 0.00 | 94 | 1027.3 |
| 20260508092009 | 2 | 5 | 410.4 | 410.4 | 0.00 | 0.00 | 0.00 | 94 | 1027.3 |
| 20260508091005 | 2 | 5 | 0.0 | 0.0 | 0.00 | 0.00 | 0.00 | 94 | 1027.3 |
| 20260508090005 | 3 | 6 | 0.0 | 0.0 | 0.00 | 0.00 | 0.00 | 94 | 1027.3 |
| 20260508084004 | 3 | 6 | 0.0 | 1.6 | 0.00 | 0.00 | 0.00 | 94 | 1027.3 |
| 20260508083005 | 3 | 358 | 0.0 | 3.2 | 0.00 | 0.00 | 0.00 | 94 | 1027.3 |
| 20260508082005 | 3 | 229 | 0.0 | 0.0 | 0.00 | 0.00 | 0.00 | 94 | 1027.3 |
| 20260508081004 | 4 | 229 | 0.0 | 0.0 | 0.00 | 0.00 | 0.00 | 94 | 1027.3 |
| 20260508080005 | 5 | 229 | 0.0 | 0.0 | 0.00 | 0.00 | 0.00 | 94 | 1027.3 |
| 20260508075005 | 5 | 229 | 0.0 | 0.0 | 0.00 | 0.00 | 0.00 | 94 | 1027.3 |
| 20260508074004 | 6 | 229 | 0.0 | 0.0 | 0.00 | 0.00 | 0.00 | 94 | 1027.3 |
| 20260508072004 | 6 | 229 | 0.0 | 0.0 | 0.00 | 0.00 | 0.00 | 94 | 1027.3 |
| 20260508064004 | 7 | 229 | 0.0 | 0.0 | 0.00 | 0.00 | 0.00 | 94 | 1027.3 |
| 20260508063003 | 7 | 229 | 0.0 | 0.0 | 0.00 | 0.00 | 0.00 | 94 | 1027.3 |
| 20260508062004 | 7 | 229 | 0.0 | 0.0 | 0.00 | 0.00 | 0.00 | 94 | 1027.3 |
| 20260508055005 | 7 | 224 | 0.0 | 3.2 | 0.00 | 0.00 | 0.00 | 94 | 1027.3 |
| 20260508053005 | 8 | 238 | 0.0 | 0.0 | 0.00 | 0.00 | 0.00 | 94 | 1027.3 |
| 20260508052003 | 8 | 225 | 0.0 | 1.6 | 0.00 | 0.00 | 0.00 | 94 | 1027.3 |
| 20260508051005 | 8 | 225 | 0.0 | 0.0 | 0.00 | 0.00 | 0.00 | 94 | 1027.3 |
| 20260508050005 | 8 | 240 | 1.6 | 1.6 | 0.00 | 0.00 | 0.00 | 94 | 1027.3 |
| 20260508045005 | 8 | 218 | 1.6 | 3.2 | 0.00 | 0.00 | 0.00 | 94 | 1027.3 |
| 20260508044009 | 8 | 224 | 0.0 | 4.8 | 0.00 | 0.00 | 0.00 | 94 | 1027.3 |
| 20260508043005 | 8 | 236 | 0.0 | 4.8 | 0.00 | 0.00 | 0.00 | 94 | 1027.3 |
| 20260508041004 | 8 | 221 | 0.0 | 1.6 | 0.00 | 0.00 | 0.00 | 94 | 1027.3 |
| 20260508040006 | 8 | 224 | 0.0 | 4.8 | 0.00 | 0.00 | 0.00 | 94 | 1027.3 |
| 20260508033004 | 8 | 215 | 0.0 | 3.2 | 0.00 | 0.00 | 0.10 | 94 | 1027.3 |
| 20260508032004 | 8 | 239 | 0.0 | 3.2 | 0.00 | 0.00 | 0.10 | 94 | 1027.3 |
| 20260508030005 | 8 | 227 | 0.0 | 0.0 | 0.00 | 0.00 | 0.10 | 94 | 1027.3 |
| 20260508025005 | 8 | 213 | 0.0 | 1.6 | 0.00 | 0.00 | 0.10 | 93 | 1027.3 |
| 20260508024004 | 8 | 211 | 0.0 | 1.6 | 0.00 | 0.00 | 0.10 | 93 | 1027.3 |
| 20260508023004 | 8 | 211 | 0.0 | 3.2 | 0.00 | 0.00 | 0.10 | 93 | 1027.3 |
| 20260508022005 | 8 | 225 | 0.0 | 1.6 | 0.00 | 0.00 | 0.10 | 93 | 1027.3 |
| 20260508020005 | 9 | 222 | 0.0 | 1.6 | 0.00 | 0.00 | 0.10 | 93 | 1027.3 |
| 20260508015004 | 9 | 223 | 0.0 | 1.6 | 0.00 | 0.00 | 0.10 | 93 | 1027.3 |
| 20260508014004 | 8 | 223 | 0.0 | 0.0 | 0.00 | 0.00 | 0.10 | 92 | 1027.3 |
| 20260508012005 | 8 | 223 | 0.0 | 0.0 | 0.00 | 0.00 | 0.10 | 91 | 1027.3 |
| 20260508011005 | 9 | 223 | 0.0 | 0.0 | 0.00 | 0.00 | 0.10 | 90 | 1027.3 |
| 20260508005004 | 10 | 223 | 0.0 | 0.0 | 0.00 | 0.00 | 0.10 | 89 | 1027.3 |
| 20260508004005 | 10 | 223 | 0.0 | 0.0 | 0.00 | 0.00 | 0.10 | 87 | 1027.3 |
| 20260508002004 | 11 | 218 | 0.0 | 3.2 | 0.00 | 0.00 | 0.10 | 84 | 1027.3 |
| 20260508001004 | 11 | 225 | 0.0 | 0.0 | 0.00 | 0.00 | 0.10 | 79 | 1027.3 |
| 20260508000005 | 11 | 236 | 0.0 | 4.8 | 0.00 | 0.00 | 0.10 | 77 | 1027.3 |
| 20260507235004 | 12 | 250 | 0.0 | 4.8 | 0.00 | 0.00 | 0.10 | 77 | 1027.3 |
| 20260507234005 | 12 | 231 | 0.0 | 6.4 | 0.00 | 0.00 | 0.10 | 76 | 1027.3 |
| 20260507233004 | 12 | 194 | 4.8 | 8.0 | 0.00 | 0.00 | 0.10 | 75 | 1027.3 |
| 20260507232004 | 12 | 217 | 1.6 | 6.4 | 0.00 | 0.00 | 0.10 | 74 | 1027.3 |
| 20260507231004 | 12 | 178 | 1.6 | 8.0 | 0.00 | 0.00 | 0.10 | 77 | 1027.3 |
| 20260507230005 | 12 | 240 | 1.6 | 6.4 | 0.00 | 0.00 | 0.10 | 78 | 1027.3 |
| 20260507224004 | 13 | 225 | 3.2 | 8.0 | 0.00 | 0.00 | 0.10 | 82 | 1027.3 |
| 20260507223004 | 12 | 213 | 9.7 | 9.7 | 0.00 | 0.00 | 0.10 | 84 | 1027.3 |
| 20260507222005 | 12 | 221 | 3.2 | 12.9 | 0.00 | 0.00 | 0.10 | 83 | 1027.3 |
| 20260507221004 | 12 | 203 | 6.4 | 11.3 | 0.00 | 0.00 | 0.10 | 85 | 1027.3 |
| 20260507220005 | 12 | 244 | 4.8 | 12.9 | 0.00 | 0.00 | 0.10 | 86 | 1027.3 |
| 20260507215004 | 12 | 195 | 1.6 | 8.0 | 0.00 | 0.00 | 0.10 | 88 | 1027.3 |
| 20260507214005 | 12 | 224 | 3.2 | 8.0 | 0.00 | 0.00 | 0.10 | 86 | 1027.3 |
| 20260507213005 | 12 | 217 | 3.2 | 12.9 | 0.00 | 0.00 | 0.10 | 84 | 1027.3 |
| 20260507210006 | 12 | 144 | 0.0 | 9.7 | 0.00 | 0.00 | 0.10 | 84 | 1027.3 |
| 20260507204004 | 11 | 275 | 1.6 | 4.8 | 0.00 | 0.00 | 0.10 | 88 | 1027.3 |
| 20260507202005 | 11 | 233 | 0.0 | 6.4 | 0.00 | 0.00 | 0.10 | 87 | 1027.3 |
| 20260507201004 | 11 | 222 | 0.0 | 3.2 | 0.00 | 0.00 | 0.10 | 90 | 1027.3 |
| 20260507200006 | 11 | 244 | 3.2 | 4.8 | 0.00 | 0.00 | 0.10 | 90 | 1027.3 |
| 20260507195004 | 11 | 223 | 1.6 | 4.8 | 0.00 | 0.00 | 0.10 | 89 | 1027.3 |
| 20260507194004 | 11 | 229 | 0.0 | 3.2 | 0.00 | 0.00 | 0.10 | 90 | 1027.3 |
| 20260507193005 | 11 | 217 | 0.0 | 0.0 | 0.00 | 0.00 | 0.10 | 89 | 1027.3 |
| 20260507192004 | 11 | 81 | 0.0 | 1.6 | 0.00 | 0.00 | 0.10 | 90 | 1027.3 |
| 20260507191004 | 11 | 227 | 0.0 | 0.0 | 0.00 | 0.00 | 0.10 | 91 | 1027.3 |
| 20260507185005 | 10 | 226 | 0.0 | 0.0 | 0.00 | 0.00 | 0.10 | 91 | 1027.3 |
| 20260507184005 | 10 | 214 | 0.0 | 0.0 | 0.00 | 0.00 | 0.10 | 92 | 1027.3 |
| 20260507183005 | 10 | 278 | 0.0 | 0.0 | 0.00 | 0.00 | 0.10 | 92 | 1027.3 |
| 20260507182005 | 10 | 4 | 0.0 | 0.0 | 0.00 | 0.00 | 0.10 | 92 | 1027.3 |
| 20260507181005 | 10 | 25 | 0.0 | 8.0 | 0.00 | 0.00 | 0.10 | 92 | 1027.3 |
| 20260507180006 | 10 | 299 | 0.0 | 3.2 | 0.00 | 0.00 | 0.10 | 92 | 1027.3 |
| 20260507175006 | 11 | 352 | 0.0 | 6.4 | 0.00 | 0.00 | 0.10 | 92 | 1027.3 |
| 20260507173005 | 11 | 283 | 0.0 | 3.2 | 0.00 | 0.00 | 0.10 | 92 | 1027.3 |
| 20260507172005 | 11 | 304 | 0.0 | 4.8 | 0.00 | 0.00 | 0.10 | 92 | 1027.3 |
| 20260507171004 | 11 | 18 | 0.0 | 0.0 | 0.00 | 0.00 | 0.10 | 92 | 1027.3 |
| 20260507170006 | 11 | 13 | 0.0 | 6.4 | 0.00 | 0.00 | 0.10 | 92 | 1027.3 |
| 20260507165005 | 11 | 286 | 0.0 | 3.2 | 0.00 | 0.00 | 0.10 | 92 | 1027.3 |
| 20260507164005 | 11 | 1 | 0.0 | 1.6 | 0.00 | 0.00 | 0.10 | 93 | 1027.3 |
| 20260507163004 | 11 | 17 | 0.0 | 0.0 | 0.00 | 0.00 | 0.10 | 93 | 1027.3 |
| 20260507162004 | 11 | 18 | 0.0 | 3.2 | 0.00 | 0.00 | 0.10 | 92 | 1027.3 |
| 20260507161004 | 11 | 329 | 0.0 | 4.8 | 0.00 | 0.00 | 0.10 | 93 | 1027.3 |
| 20260507160004 | 11 | 8 | 0.0 | 6.4 | 0.00 | 0.00 | 0.10 | 93 | 1027.3 |
| 20260507155004 | 11 | 63 | 3.2 | 6.4 | 0.00 | 0.00 | 0.10 | 93 | 1027.3 |
| 20260507154004 | 11 | 33 | 1.6 | 4.8 | 0.00 | 0.00 | 0.10 | 93 | 1027.3 |
| 20260507152005 | 10 | 23 | 3.2 | 9.7 | 0.00 | 0.00 | 0.10 | 93 | 1027.3 |
| 20260507151003 | 10 | 359 | 4.8 | 6.4 | 0.00 | 0.00 | 0.10 | 93 | 1027.3 |
| 20260507150005 | 10 | 5 | 0.0 | 9.7 | 0.00 | 0.00 | 0.10 | 93 | 1027.3 |